Погода в Питляре

Погода в Питляре : погода сейчас, прогноз погоды и архив. Всё, что Вы хотите узнать о погоде в Питляре!

Хотите узнать прогноз погоды в Питляре? Тогда Вам сюда: Погода в Питляре

Поиск расширенной информации на нашем сайте:

Другие новости

Новости СМИ2

Главная страница сайта

Новости сайта

03.07.2017

Напоминаем, что на нашем специализированном сайте Метеоцентр.Азия вы можете получить высокодетализированные автоматические прогнозы погоды по пунктам России, СНГ и мира в авиационном формате (включающие направление и скорость ветра, видимость, явления погоды, количество и форму облачности, нижнюю и верхнюю границу облачности).

Рекомендуем: Красивый телефонный номер.

Погода в Питляре - сегодня

Время (UTC), дата Ветер
(°,м/с) 
Видим.   Явления Облачность Т
(°С)
Тd
(°С)
f(%) Тe
(°С)
Pmin
(гПа)
dP
(гПа)
Po
(мм)
O2
(г/м3)
Тmin Tmax R s Состояние
почвы
15 22.07.17 100 (В) 2{10}  20000 м    10/6 300 м кучево-дожд., верхняя 
[Cb calv|Ci ing]
+23.4 +9.9 42 +24  1015.5  0.1  760  280    +30.2       
18 22.07.17 030 (СВ) 3{10}  20000 м    10/0 средняя, верхняя 
[Ac lent|Ci sp]
+18.9 +11.6 63 +23  1015.5  -0.1  760  284           
21 22.07.17 050 (СВ) 20000 м    10/0 средняя, верхняя 
[Ac lent|Ci fib]
+18.4 +12.5 68 +23  1014.8  -0.7  760  284           
00 23.07.17 070 (В) 20000 м    4/0 верхняя 
[Ci fib]
+18 +14.6 81 +27  1014.7  -0.1  760  284           
06 23.07.17 090 (В) н/о    н/о 
+28 +10 32 +29  1013.7  -0.8  759  276    +28       
09 23.07.17 050 (СВ) 20000 м    10/4 600 м верхняя 
[Cu med, cong|Ci fib]
+29.5 +6.4 23 +30  1012.9  -0.8  758  275           
12 23.07.17 070 (В) н/о    н/о 
+29.2 +5.2 22 +29  1011.8  -1  757  275           
15 23.07.17 060 (СВ) 20000 м    10/0 средняя, верхняя 
[Ac lent|Ci fib]
+25.9 +5.8 28 +26  1011.8  757  278    +29.8       
18 23.07.17 050 (СВ) 20000 м    10/0 верхняя 
[Ci fib]
+19.7 +9.5 52 +21  1011.6  -0.2  757  283           
21 23.07.17 070 (В) 20000 м    10/0 средняя, верхняя 
[Ac trans|Ci fib]
+16.2 +9.7 65 +18  1011.1  -0.6  757  286           
00 24.07.17 360 (С) 20000 м    10/3 600 м средняя, верхняя 
[Cu med, cong|Ac trans|Ci fib]
+15.6 +11.6 77 +19  1011.1  0.1  757  286           
03 24.07.17 040 (СВ) 20000 м    10/3 600 м средняя, верхняя 
[Cu med, cong|Ac trans|Ci fib]
+21.6 +12.5 56 +26  1010.9  -0.2  757  280  +14.8         
06 24.07.17 020 (С) н/о    н/о 
+27.5 +8.5 30 +28  1009.9  -1  756  275    +27.5       
09 24.07.17 320 (СЗ) 20000 м    10/6 300 м кучево-дожд., верхняя 
[Cb cap|Ci fib]
+26.7 +11.3 38 +29  1008.8  -1.1  755  275           
12 24.07.17 340 (С) н/о    н/о 
+25.4 +13.4 47 +31  1008.4  -0.3  755  276           
15 24.07.17 020 (С) 20000 м    6/0 верхняя 
[Ci fib]
+24.9 +11.2 42 +28  1007.8  -0.6  754  277    +28.7     
18 24.07.17 070 (В) 20000 м    10/5 300 м кучево-дожд., средняя, верхняя 
[Cb cap|Ac trans|Ci fib]
+19 +12.6 66 +25  1008.3  0.5  755  282           
21 24.07.17 040 (СВ) 20000 м    10/1 600 м средняя, верхняя 
[Cu med, cong|Ac trans|Ci fib]
+17.9 +13.4 75 +24  1008.6  0.3  755  283           
00 25.07.17 030 (СВ) 4{10}  20000 м    6/0 средняя, верхняя 
[Ac trans|Ci fib]
+17.5 +14 80 +25  1009.2  0.6  755  283           
03 25.07.17 040 (СВ) 20000 м    6/1 600 м средняя 
[Cu med, cong|Ac lent]
+20.3 +13.5 65 +26  1009.6  0.4  756  281  +17.4         
06 25.07.17 060 (СВ) н/о    н/о 
+21.1 +14.6 66 +29  1010  0.3  756  280    +21.6       
09 25.07.17 020 (С) 20000 м    8/8 600 м 
[Cu med, cong]
+24.4 +12.4 47 +29  1009.3  -0.7  756  277           
12 25.07.17 020 (С) н/о    н/о 
+24.2 +10.2 41 +25  1009.4  -0.7  756  278           
15 25.07.17 030 (СВ) 20000 м    1/1 600 м 
[Cu med, cong]
+22.1 +8.9 43 +22  1009.8  0.4  756  280    +24.7       
18 25.07.17 040 (СВ) 20000 м    3/0 верхняя 
[Ci fib]
+17.7 +10 61 +19  1010.3  0.4  756  284           
Время (UTC), дата Ветер
(°,м/с) 
Видим.   Явления Облачность Т
(°С)
Тd
(°С)
f(%) Тe
(°С)
Pmin
(гПа)
dP
(гПа)
Po
(мм)
O2
(г/м3)
Тmin Tmax R s Состояние
почвы

Для получения пояснительной информации подведите курсор к названию столбца.

ПОГОДА в Питляре - архив

Всё, что Вы хотите узнать о погоде в Питляре - удобно и подробно!

Выберите нужную дату (начиная с 1 января 2015* года) и нажмите кнопку "Найти".
Будут отображены архивные сводки погоды по пункту Питляр, начиная с указанной даты.


Отображать данные в формате CSV (для использования в таблицах Excel)


Внимание! Наш архив погоды предназначен исключительно для личного некоммерческого использования в познавательных целях. Если Вам необходимы официальные справки о состоянии погоды (для производственных, юридических, коммерческих и т.п. целей), обращайтесь в органы Росгидромета.

*Примечание: данная дата относится к архиву по метеостанциям СССР (Россия, СНГ, Балтия).
Архив по метеостанциям Зарубежной Европы и Азии (кроме Китая) хранится 10 дней, по другим регионам земного шара (Китай, Африка, Америка, Австралия, Океания) - 1 день.

Питляр - район местоположения метеостанции


Название, широта, долгота, высота метеостанции:
Питляр 65.8°ш. 66°д. 17 м над ур. моря [Российская Федерация]

Дополнительная информация

В oтличие oт бoльшинства пoгoдных сайтoв мы публикуем пoдрoбную метеoинфoрмацию в детальнoм прoфессиoнальнoм фoрмате.

Характеристики температуры и влажнoсти вoздуха измеряются на высoте 2 м в тени вдали oт зданий и деревьев.
Скoрoсть ветра измеряется на высoте 10 м (на урoвне рoста челoвека скoрoсть ветра ниже в 1.5-2 раза). Если метеoстанция нахoдится в гoрoде или в лесу, тo скoрoсть ветра занижена на 2-4 м/с пo сравнению с oткрытым местoм. Скoрoсть ветра над акватoриями крупных рек и oзёр, а также на вершинах хoлмoв на 2-5 м/с выше, чем в oбычных услoвиях.
Атмoсфернoе давление в разных тoчках местнoсти мoжет значительнo oтличаться oт давления на метеoстанции, в зависимoсти oт услoвий рельефа (при пoдъёме на 10 м давление пoнижается примернo на 1 мм рт.ст.).